YINHE-1 (45024 NORAD) Tracking and Keplerian Element Data

This shows tracking and keplerian element data for the satellite.

Feedback or suggestion? Click here.




ElementValue
Catalog45024
NameYINHE-1
Epoch Orbit547
Epoch Day53.22024578
Epoch Year2020
RAAN68.1271
Inclination86.3925
Eccentricity0.0015091
Argument of Perigee127.9851
Mean Anonmoly232.2748
Mean Motion14.80050967
Decay Rate2.7E-07
L11 45024U 20004A 20053.22024578 .00000027 00000-0 00000+0 0 9999
L22 45024 86.3925 68.1271 0015091 127.9851 232.2748 14.80050967 5478

Live tracking and technical data element details for YINHE-1 (NORAD 45024). YINHE-1 can be tracked NOW for your location showing map with azimuth and elevation plus other details from your city location.

Track the satellite on the map from your city or location and see movement details for azimuth, elevation, latitude, longitude, range, height, and movement on the map or in text.







IsCatalogInMostPopularTable: catalog: 45024, numindb: 12
Update: records affected: 1



GetName: 45024 YINHE-1

Hit Count: updated at: Mon, 24 Feb 2020 18:44:28 GMT